Location: Caltech
(34.1382°N, 118.1253°W)
Time: 20:57:28
(UTC-07:00)

NOSS 3-2 (A) - Visible Passes

Search period start: 19 September 2017 00:00
Search period end: 29 September 2017 00:00
Orbit: 872 x 1336 km, 63.4° (Epoch: 21 August)

Date Brightness Start Highest point End Pass type
(mag) Time Alt. Az. Time Alt. Az. Time Alt. Az.
19 Sep 6.0 05:32:37 10° SSE 05:36:21 18° ESE 05:40:13 10° ENE visible
21 Sep 4.6 05:50:20 10° S 05:55:51 45° ESE 06:01:47 10° NE visible
22 Sep 5.5 05:06:11 10° SSE 05:10:49 25° ESE 05:15:41 10° ENE visible
23 Sep 6.0 04:23:29 10° SE 04:25:54 13° ESE 04:28:20 10° E visible
23 Sep 3.4 06:09:51 10° SW 06:15:43 76° WNW 06:22:08 10° NNE visible
24 Sep 3.9 05:24:41 10° SSW 05:30:26 62° ESE 05:36:40 10° NE visible
25 Sep 4.8 04:40:07 10° S 04:45:19 34° ESE 04:50:51 10° NE visible
26 Sep 5.6 03:57:13 12° SE 04:00:20 18° ESE 04:04:22 10° ENE visible
26 Sep 3.5 05:44:40 10° SW 05:50:26 57° NW 05:56:46 10° NNE visible
27 Sep 3.4 05:01:41 27° SSW 05:05:03 84° ESE 05:11:27 10° NNE visible
28 Sep 4.1 04:18:33 40° SSE 04:19:51 47° ESE 04:25:50 10° NE visible
28 Sep 4.5 06:06:00 10° WSW 06:10:54 27° NW 06:16:18 10° N visible
